Date String (YYYY-MM-DD hh:mm:ss) UTC,Instrument flags,Ambient pressure (hPa),Sample flow (lpm),Bypass flow (lpm),Sample temperature (°C),Ambient temperature (°C),ASC tube jacket temperature (°C),LED temperature (°C),Box temperature (°C),Sample RH (%),Span deviation,Mass concentration (μg/m³),Mass concentration (μg/m³),Mass concentration (μg/m³)
DateTimeUTC,F1_M11,P_M11,Q1_M11,Q2_M11,T1_M11,T2_M11,T3_M11,T4_M11,T5_M11,U1_M11,ZSPAN_M11,X2_M11,X0_M11,X1_M11
2021-12-22 02:00:00,,0822.6,5.00,0.00,25.5,24.6,00.0,34.5,27.2,02.7,0000.0,0000.62,0001.08,0000.44
2021-12-22 02:01:00,,0822.5,5.01,0.00,25.5,24.7,00.0,34.5,27.2,02.8,0000.0,0000.60,0001.02,0000.43
2021-12-22 02:02:00,,0822.4,5.00,0.00,25.5,24.7,00.0,34.5,27.3,02.8,0000.0,0000.59,0000.92,0000.43
2021-12-22 02:03:00,,0822.5,5.00,0.00,25.5,24.7,00.0,34.5,27.2,02.8,0000.0,0000.60,0000.94,0000.43
2021-12-22 02:04:00,,0822.5,5.01,0.00,25.5,24.6,00.0,34.5,27.2,02.8,0000.0,0000.62,0001.04,0000.43
2021-12-22 02:05:00,,0822.5,4.98,0.00,25.5,24.6,00.0,34.5,27.2,02.8,0000.0,0000.62,0001.15,0000.43
2021-12-22 02:06:00,,0822.5,5.00,0.00,25.5,24.6,00.0,34.5,27.2,02.8,0000.0,0000.61,0001.11,0000.43
2021-12-22 02:07:00,,0822.4,5.01,0.00,25.5,24.7,00.0,34.5,27.2,02.9,0000.0,0000.60,0001.03,0000.43
2021-12-22 02:08:00,,0822.4,4.99,0.00,25.5,24.7,00.0,34.5,27.2,02.9,0000.0,0000.57,0001.11,0000.42
2021-12-22 02:09:00,,0822.4,5.01,0.00,25.5,24.7,00.0,34.5,27.2,02.8,0000.0,0000.53,0002.27,0000.42
2021-12-22 02:10:00,,0822.4,5.01,0.00,25.5,24.7,00.0,34.5,27.2,02.8,0000.0,0000.52,0002.26,0000.41
2021-12-22 02:11:00,,0822.4,5.00,0.00,25.5,24.7,00.0,34.5,27.2,02.8,0000.0,0000.54,0002.55,0000.40
2021-12-22 02:12:00,,0822.4,5.00,0.00,25.5,24.7,00.0,34.5,27.2,02.8,0000.0,0000.57,0002.72,0000.40
2021-12-22 02:13:00,,0822.5,5.00,0.00,25.5,24.7,00.0,34.5,27.2,02.8,0000.0,0000.57,0002.76,0000.39
2021-12-22 02:14:00,,0822.5,4.99,0.00,25.5,24.7,00.0,34.5,27.2,02.9,0000.0,0000.58,0002.76,0000.39
2021-12-22 02:15:00,,0822.4,5.01,0.00,25.5,24.7,00.0,34.5,27.2,03.0,0000.0,0000.56,0002.70,0000.39
2021-12-22 02:16:00,,0822.5,5.01,0.00,25.5,24.7,00.0,34.5,27.2,03.3,0000.0,0000.56,0002.59,0000.40
2021-12-22 02:17:00,,0822.6,5.01,0.00,25.5,24.7,00.0,34.5,27.2,03.5,0000.0,0000.56,0002.55,0000.42
2021-12-22 02:18:00,,0822.4,4.99,0.00,25.5,24.6,00.0,34.5,27.2,03.6,0000.0,0000.62,0002.63,0000.44
2021-12-22 02:19:00,,0822.4,5.01,0.00,25.5,24.7,00.0,34.5,27.2,03.6,0000.0,0000.64,0002.45,0000.46
2021-12-22 02:20:00,,0822.5,4.99,0.00,25.5,24.7,00.0,34.5,27.3,03.7,0000.0,0000.67,0001.36,0000.48
2021-12-22 02:21:00,,0822.6,5.00,0.00,25.5,24.7,00.0,34.5,27.2,03.8,0000.0,0000.70,0001.43,0000.51
2021-12-22 02:22:00,,0822.6,4.99,0.00,25.5,24.6,00.0,34.5,27.2,03.9,0000.0,0000.72,0001.24,0000.55
2021-12-22 02:23:00,,0822.6,5.01,0.00,25.5,24.6,00.0,34.5,27.2,03.9,0000.0,0000.77,0001.31,0000.58
2021-12-22 02:24:00,,0822.4,5.01,0.00,25.5,24.6,00.0,34.5,27.2,03.9,0000.0,0000.83,0001.38,0000.61
2021-12-22 02:25:00,,0822.4,5.00,0.00,25.5,24.6,00.0,34.5,27.2,03.8,0000.0,0000.87,0001.44,0000.63
2021-12-22 02:26:00,,0822.6,5.00,0.00,25.5,24.6,00.0,34.5,27.2,03.7,0000.0,0000.89,0001.52,0000.63
2021-12-22 02:27:00,,0822.6,5.00,0.00,25.5,24.6,00.0,34.5,27.2,03.9,0000.0,0000.93,0001.78,0000.64
2021-12-22 02:28:00,,0822.5,4.99,0.00,25.4,24.6,00.0,34.5,27.1,03.9,0000.0,0000.98,0002.39,0000.65
2021-12-22 02:29:00,,0822.5,5.00,0.00,25.4,24.6,00.0,34.5,27.1,03.9,0000.0,0001.01,0002.57,0000.65
2021-12-22 02:30:00,,0822.4,4.98,0.00,25.4,24.6,00.0,34.5,27.1,03.9,0000.0,0001.05,0002.62,0000.65
2021-12-22 02:31:00,,0822.4,5.01,0.00,25.4,24.5,00.0,34.5,27.1,03.8,0000.0,0001.05,0002.58,0000.64
2021-12-22 02:32:00,,0822.5,5.01,0.00,25.4,24.5,00.0,34.5,27.1,03.8,0000.0,0001.04,0002.57,0000.63
2021-12-22 02:33:00,,0822.5,4.99,0.00,25.4,24.5,00.0,34.5,27.1,03.8,0000.0,0001.01,0002.49,0000.61
2021-12-22 02:34:00,,0822.5,5.01,0.00,25.4,24.5,00.0,34.5,27.1,03.8,0000.0,0000.97,0002.33,0000.60
2021-12-22 02:35:00,,0822.6,4.99,0.00,25.4,24.6,00.0,34.5,27.1,03.7,0000.0,0000.93,0002.25,0000.58
2021-12-22 02:36:00,,0822.6,5.00,0.00,25.4,24.6,00.0,34.4,27.1,03.5,0000.0,0000.87,0002.16,0000.56
2021-12-22 02:37:00,,0822.6,5.01,0.00,25.4,24.6,00.0,34.4,27.1,03.6,0000.0,0000.86,0002.11,0000.55
2021-12-22 02:38:00,,0822.6,4.99,0.00,25.4,24.6,00.0,34.4,27.1,03.7,0000.0,0000.84,0002.01,0000.54
2021-12-22 02:39:00,,0822.6,5.01,0.00,25.4,24.6,00.0,34.4,27.1,03.6,0000.0,0000.80,0001.41,0000.52
2021-12-22 02:40:00,,0822.6,4.99,0.00,25.4,24.6,00.0,34.4,27.2,03.5,0000.0,0000.73,0001.16,0000.51
2021-12-22 02:41:00,,0822.5,5.00,0.00,25.4,24.6,00.0,34.4,27.2,03.6,0000.0,0000.67,0001.51,0000.50
2021-12-22 02:42:00,,0822.5,4.99,0.00,25.4,24.6,00.0,34.4,27.2,03.5,0000.0,0000.67,0001.73,0000.49
2021-12-22 02:43:00,,0822.5,5.00,0.00,25.4,24.6,00.0,34.4,27.1,03.4,0000.0,0000.66,0001.76,0000.48
2021-12-22 02:44:00,,0822.6,5.01,0.00,25.4,24.6,00.0,34.4,27.2,03.3,0000.0,0000.65,0002.58,0000.46
2021-12-22 02:45:00,,0822.5,4.99,0.00,25.4,24.6,00.0,34.4,27.1,03.3,0000.0,0000.64,0002.58,0000.44
2021-12-22 02:46:00,,0822.4,5.00,0.00,25.4,24.6,00.0,34.4,27.1,03.5,0000.0,0000.63,0003.41,0000.43
2021-12-22 02:47:00,,0822.5,5.00,0.00,25.4,24.6,00.0,34.4,27.1,03.4,0000.0,0000.64,0003.50,0000.43
2021-12-22 02:48:00,,0822.6,5.00,0.00,25.4,24.6,00.0,34.4,27.1,03.4,0000.0,0000.62,0003.49,0000.43
2021-12-22 02:49:00,,0822.6,5.00,0.00,25.4,24.5,00.0,34.4,27.1,03.5,0000.0,0000.63,0003.54,0000.44
2021-12-22 02:50:00,,0822.6,4.99,0.00,25.4,24.5,00.0,34.4,27.1,03.6,0000.0,0000.65,0003.50,0000.44
2021-12-22 02:51:00,,0822.7,5.01,0.00,25.4,24.5,00.0,34.4,27.0,03.7,0000.0,0000.65,0003.48,0000.46
2021-12-22 02:52:00,,0822.7,4.97,0.00,25.4,24.5,00.0,34.4,27.0,03.8,0000.0,0000.66,0003.23,0000.47
2021-12-22 02:53:00,,0822.6,5.01,0.00,25.3,24.5,00.0,34.4,27.0,03.8,0000.0,0000.67,0002.83,0000.47
2021-12-22 02:54:00,,0822.6,5.00,0.00,25.3,24.4,00.0,34.4,27.0,03.7,0000.0,0000.68,0002.82,0000.48
2021-12-22 02:55:00,,0822.7,5.01,0.00,25.3,24.4,00.0,34.4,27.0,03.6,0000.0,0000.69,0002.48,0000.50
2021-12-22 02:56:00,,0822.6,5.00,0.00,25.3,24.4,00.0,34.4,27.0,03.7,0000.0,0000.70,0002.29,0000.52
2021-12-22 02:57:00,,0822.6,4.99,0.00,25.2,24.3,00.0,34.4,26.9,03.7,0000.0,0000.73,0001.98,0000.55
2021-12-22 02:58:00,,0822.6,5.00,0.00,25.2,24.3,00.0,34.3,26.9,03.8,0000.0,0000.79,0001.77,0000.57
2021-12-22 02:59:00,,0822.7,4.99,0.00,25.2,24.2,00.0,34.3,26.8,03.9,0000.0,0000.86,0002.01,0000.59
